POPOO2 KFFO-KPIT

Flight info

Callsign POPOO2
Flight time N/A
Altitude 39000
Route WIPOT FLYIR SHIRT APE CTW FEWGA7
Aircraft C17/H-SDE1E2FGHIJ5RTUWXY/LB1D1

Departure

Time 2026-05-06 02:03
Airport Wright-Patterson Air Force Base (KFFO)

Arrival

Time N/A
Airport Pittsburgh International Airport (KPIT)
Time Latitude Longitude Altitude Speed Heading
2026-05-06 01:36 39.83914 -84.03841 813 ft 0 kts 319°
2026-05-06 01:53 39.83920 -84.03847 813 ft 5 kts 319°
2026-05-06 01:53 39.83935 -84.03867 817 ft 5 kts 303°
2026-05-06 01:53 39.83929 -84.03948 815 ft 12 kts 239°
2026-05-06 01:53 39.83851 -84.04073 817 ft 23 kts 228°
2026-05-06 01:54 39.83694 -84.04303 817 ft 38 kts 229°
2026-05-06 01:54 39.83576 -84.04476 816 ft 0 kts 225°
2026-05-06 01:55 39.83573 -84.04480 812 ft 0 kts 225°
2026-05-06 01:55 39.83573 -84.04479 812 ft 0 kts 225°
2026-05-06 01:55 39.83570 -84.04482 814 ft 5 kts 224°
2026-05-06 01:56 39.83562 -84.04492 815 ft 0 kts 224°
2026-05-06 01:56 39.83554 -84.04496 814 ft 4 kts 187°
2026-05-06 01:56 39.83499 -84.04455 816 ft 21 kts 148°
2026-05-06 01:56 39.83410 -84.04385 816 ft 9 kts 148°
2026-05-06 01:57 39.83418 -84.04391 814 ft 0 kts 148°
2026-05-06 01:58 39.83417 -84.04390 814 ft 1 kts 143°
2026-05-06 01:58 39.83411 -84.04383 815 ft 7 kts 138°
2026-05-06 01:59 39.83372 -84.04325 818 ft 2 kts 105°
2026-05-06 01:59 39.83378 -84.04280 815 ft 16 kts 64°
2026-05-06 01:59 39.83479 -84.04113 814 ft 25 kts 47°
2026-05-06 01:59 39.83589 -84.03954 815 ft 23 kts 48°
2026-05-06 02:00 39.83687 -84.03807 814 ft 21 kts 48°
2026-05-06 02:00 39.83778 -84.03673 813 ft 19 kts 49°
2026-05-06 02:00 39.83861 -84.03550 817 ft 17 kts 48°
2026-05-06 02:00 39.83911 -84.03462 813 ft 3 kts 64°
2026-05-06 02:01 39.83918 -84.03438 817 ft 7 kts 73°
2026-05-06 02:01 39.83920 -84.03415 815 ft 4 kts 97°
2026-05-06 02:01 39.83888 -84.03308 817 ft 11 kts 131°
2026-05-06 02:01 39.83845 -84.03250 816 ft 5 kts 134°
2026-05-06 02:02 39.83809 -84.03210 812 ft 15 kts 141°
2026-05-06 02:02 39.83747 -84.03175 813 ft 5 kts 190°
2026-05-06 02:02 39.83734 -84.03182 814 ft 7 kts 208°
2026-05-06 02:02 39.83641 -84.03308 811 ft 49 kts 230°
2026-05-06 02:03 39.83249 -84.03901 814 ft 123 kts 229°
2026-05-06 02:03 39.82538 -84.04893 1002 ft 167 kts 232°
2026-05-06 02:03 39.81662 -84.06231 1158 ft 215 kts 234°
2026-05-06 02:03 39.80629 -84.07877 1622 ft 253 kts 231°
2026-05-06 02:04 39.79268 -84.09515 2300 ft 282 kts 220°
2026-05-06 02:04 39.77586 -84.10871 2892 ft 283 kts 204°
2026-05-06 02:04 39.75711 -84.11219 3843 ft 265 kts 179°
2026-05-06 02:04 39.74025 -84.10476 4642 ft 253 kts 155°
2026-05-06 02:05 39.72760 -84.08902 5021 ft 259 kts 136°
2026-05-06 02:05 39.71765 -84.06861 5117 ft 274 kts 122°
2026-05-06 02:05 39.71115 -84.04437 5042 ft 296 kts 109°
2026-05-06 02:05 39.70701 -84.01732 4922 ft 312 kts 105°
2026-05-06 02:06 39.70447 -83.98876 4906 ft 324 kts 99°
2026-05-06 02:06 39.70187 -83.95945 4911 ft 334 kts 95°
2026-05-06 02:06 39.70714 -83.93049 5074 ft 333 kts 64°
2026-05-06 02:06 39.72094 -83.90718 5581 ft 311 kts 46°
2026-05-06 02:07 39.73527 -83.88751 6118 ft 306 kts 43°
2026-05-06 02:07 39.75090 -83.86726 6620 ft 329 kts 43°
2026-05-06 02:07 39.76761 -83.84604 7088 ft 338 kts 42°
2026-05-06 02:07 39.78449 -83.82472 7579 ft 336 kts 42°
2026-05-06 02:08 39.80090 -83.80392 8047 ft 324 kts 42°
2026-05-06 02:08 39.81670 -83.78376 8549 ft 311 kts 42°
2026-05-06 02:08 39.83174 -83.76440 9067 ft 299 kts 42°
2026-05-06 02:08 39.84614 -83.74569 9592 ft 285 kts 43°
2026-05-06 02:09 39.85969 -83.72792 10073 ft 269 kts 43°
2026-05-06 02:09 39.87237 -83.71107 10537 ft 251 kts 42°
2026-05-06 02:09 39.88400 -83.69534 10987 ft 232 kts 42°
2026-05-06 02:09 39.89345 -83.67742 11428 ft 250 kts 62°
2026-05-06 02:10 39.90044 -83.65583 11936 ft 266 kts 71°
2026-05-06 02:10 39.90527 -83.63224 12457 ft 274 kts 77°
2026-05-06 02:10 39.90960 -83.60761 12983 ft 283 kts 77°
2026-05-06 02:10 39.91415 -83.58229 13503 ft 292 kts 76°
2026-05-06 02:11 39.91911 -83.55627 13986 ft 302 kts 75°
2026-05-06 02:11 39.92442 -83.52875 14342 ft 324 kts 75°
2026-05-06 02:11 39.92997 -83.49919 14712 ft 347 kts 76°
2026-05-06 02:11 39.93583 -83.46769 15079 ft 369 kts 76°
2026-05-06 02:12 39.94208 -83.43422 15431 ft 391 kts 76°
2026-05-06 02:12 39.94895 -83.39756 14677 ft 447 kts 76°
2026-05-06 02:12 39.95676 -83.35551 13658 ft 505 kts 76°
2026-05-06 02:12 39.96461 -83.31274 15652 ft 432 kts 76°
2026-05-06 02:13 39.97147 -83.27578 18076 ft 431 kts 76°
2026-05-06 02:13 39.97889 -83.23671 18324 ft 449 kts 76°
2026-05-06 02:13 39.98629 -83.19660 18698 ft 464 kts 76°
2026-05-06 02:13 39.99390 -83.15489 18869 ft 483 kts 76°
2026-05-06 02:14 40.00191 -83.11136 18942 ft 503 kts 76°
2026-05-06 02:14 40.01022 -83.06610 18981 ft 523 kts 76°
2026-05-06 02:14 40.01883 -83.01907 18995 ft 542 kts 76°
2026-05-06 02:14 40.02771 -82.97040 18998 ft 559 kts 76°
2026-05-06 02:15 40.03662 -82.92143 18993 ft 538 kts 76°
2026-05-06 02:15 40.04492 -82.87576 18991 ft 497 kts 76°
2026-05-06 02:15 40.05260 -82.83341 18984 ft 463 kts 76°
2026-05-06 02:15 40.05992 -82.79294 18989 ft 465 kts 76°
2026-05-06 02:16 40.06747 -82.75113 19086 ft 481 kts 76°
2026-05-06 02:16 40.07530 -82.70767 19047 ft 501 kts 76°
2026-05-06 02:16 40.08339 -82.66260 19027 ft 518 kts 76°
2026-05-06 02:16 40.09173 -82.61610 19013 ft 534 kts 76°
2026-05-06 02:17 40.10020 -82.56874 19013 ft 549 kts 77°
2026-05-06 02:17 40.10904 -82.51901 19010 ft 558 kts 77°
2026-05-06 02:17 40.11784 -82.46962 19004 ft 561 kts 77°
2026-05-06 02:17 40.12657 -82.42045 19006 ft 563 kts 77°
2026-05-06 02:18 40.13539 -82.37043 18989 ft 565 kts 77°
2026-05-06 02:18 40.14425 -82.32037 19001 ft 568 kts 77°
2026-05-06 02:18 40.15312 -82.26991 18976 ft 570 kts 77°
2026-05-06 02:18 40.16208 -82.21885 18504 ft 582 kts 77°
2026-05-06 02:19 40.17116 -82.16700 18237 ft 589 kts 77°
2026-05-06 02:19 40.18027 -82.11462 18109 ft 592 kts 77°
2026-05-06 02:19 40.18944 -82.06212 18045 ft 592 kts 77°
2026-05-06 02:19 40.19839 -82.01025 18016 ft 575 kts 77°
2026-05-06 02:20 40.21558 -81.91079 17993 ft 547 kts 77°
2026-05-06 02:20 40.22386 -81.86280 17995 ft 536 kts 77°
2026-05-06 02:20 40.23197 -81.81552 17984 ft 528 kts 77°
2026-05-06 02:21 40.23995 -81.76890 18004 ft 521 kts 77°
2026-05-06 02:21 40.24779 -81.72298 17992 ft 514 kts 77°
2026-05-06 02:21 40.25554 -81.67752 17996 ft 509 kts 77°
2026-05-06 02:21 40.26318 -81.63250 17998 ft 503 kts 77°
2026-05-06 02:22 40.27074 -81.58786 17993 ft 503 kts 77°
2026-05-06 02:22 40.27832 -81.54307 18004 ft 503 kts 77°
2026-05-06 02:22 40.28585 -81.49834 18006 ft 504 kts 77°
2026-05-06 02:22 40.29320 -81.45345 18010 ft 504 kts 79°
2026-05-06 02:23 40.29624 -81.40788 18000 ft 502 kts 82°
2026-05-06 02:23 40.30743 -81.36478 17941 ft 502 kts 66°
2026-05-06 02:23 40.31732 -81.32056 17422 ft 507 kts 79°
2026-05-06 02:23 40.32315 -81.27552 16900 ft 495 kts 81°
2026-05-06 02:24 40.33010 -81.23190 16390 ft 484 kts 77°
2026-05-06 02:24 40.33737 -81.18939 15880 ft 474 kts 78°
2026-05-06 02:24 40.34426 -81.14744 15383 ft 465 kts 78°
2026-05-06 02:24 40.35106 -81.10647 14903 ft 456 kts 78°
2026-05-06 02:25 40.35739 -81.06776 14412 ft 409 kts 78°
2026-05-06 02:25 40.36318 -81.03241 13940 ft 381 kts 78°
2026-05-06 02:25 40.36870 -80.99893 13444 ft 371 kts 78°
2026-05-06 02:25 40.37419 -80.96627 12925 ft 363 kts 78°
2026-05-06 02:26 40.37968 -80.93429 12411 ft 355 kts 78°
2026-05-06 02:26 40.38517 -80.90309 11894 ft 348 kts 78°
2026-05-06 02:26 40.39072 -80.87241 11392 ft 342 kts 78°
2026-05-06 02:26 40.39628 -80.84240 10900 ft 337 kts 78°
2026-05-06 02:27 40.40190 -80.81275 10443 ft 334 kts 78°
2026-05-06 02:27 40.40761 -80.78341 10205 ft 329 kts 78°
2026-05-06 02:27 40.41329 -80.75456 10111 ft 325 kts 78°
2026-05-06 02:27 40.41890 -80.72630 10049 ft 324 kts 78°
2026-05-06 02:28 40.42476 -80.69728 10025 ft 324 kts 78°
2026-05-06 02:28 40.43061 -80.66811 10002 ft 337 kts 78°
2026-05-06 02:28 40.43655 -80.63828 10005 ft 348 kts 78°
2026-05-06 02:28 40.44274 -80.60717 10022 ft 353 kts 78°
2026-05-06 02:29 40.44895 -80.57649 10005 ft 343 kts 78°
2026-05-06 02:29 40.45123 -80.54630 9993 ft 324 kts 98°
2026-05-06 02:29 40.44965 -80.51717 9882 ft 319 kts 100°
2026-05-06 02:29 40.44769 -80.48786 9399 ft 328 kts 101°
2026-05-06 02:30 40.44547 -80.45760 8874 ft 336 kts 101°
2026-05-06 02:30 40.44306 -80.42671 8329 ft 343 kts 101°
2026-05-06 02:30 40.44057 -80.39533 7795 ft 350 kts 101°
2026-05-06 02:30 40.43802 -80.36325 7364 ft 353 kts 101°
2026-05-06 02:31 40.43555 -80.33141 7184 ft 348 kts 101°
2026-05-06 02:31 40.43319 -80.30010 7096 ft 341 kts 101°
2026-05-06 02:31 40.43094 -80.26949 7043 ft 332 kts 101°
2026-05-06 02:31 40.42889 -80.23981 7012 ft 324 kts 101°
2026-05-06 02:32 40.42693 -80.21072 6997 ft 315 kts 101°
2026-05-06 02:32 40.42503 -80.18177 6642 ft 321 kts 101°
2026-05-06 02:32 40.42312 -80.15236 6310 ft 326 kts 99°
2026-05-06 02:32 40.42265 -80.12317 6339 ft 312 kts 98°
2026-05-06 02:33 40.42235 -80.09491 6140 ft 313 kts 97°
2026-05-06 02:33 40.42219 -80.07611 5963 ft 306 kts 97°
2026-05-06 02:34 40.43200 -79.98573 5285 ft 312 kts 56°
2026-05-06 02:34 40.44775 -79.96572 4901 ft 322 kts 32°
2026-05-06 02:34 40.46783 -79.95302 4673 ft 318 kts 10°
2026-05-06 02:34 40.48241 -79.95092 4458 ft 308 kts 352°
2026-05-06 02:35 40.50213 -79.95900 4249 ft 288 kts 322°
2026-05-06 02:35 40.51464 -79.97588 3880 ft 242 kts 297°